FW2760 Weather Reports


Display with metric or nautical units.
time (UTC)temp
F
wind
direction
speed
MPH
gust
MPH
rain 1hr
in
rain 24hr
in
rain mn
in
humidity
%
barometer
mb
20260505225529 84 143 4.0 8.0 0.00 0.00 0.00 55 1006.0
20260505225051 84 154 4.0 10.0 0.00 0.00 0.00 54 1005.9
20260505225045 84 209 4.0 8.0 0.00 0.00 0.00 54 1005.9
20260505224029 84 0 4.0 10.0 0.00 0.00 0.00 54 1005.9
20260505223529 83 161 5.0 11.0 0.00 0.00 0.00 55 1005.9
20260505223043 84 174 6.0 14.0 0.00 0.00 0.00 54 1005.9
20260505223037 83 184 5.0 11.0 0.00 0.00 0.00 54 1006.0
20260505222020 83 173 5.0 14.0 0.00 0.00 0.00 54 1006.0
20260505221519 83 161 4.0 11.0 0.00 0.00 0.00 55 1006.1
20260505221021 83 175 5.0 11.0 0.00 0.00 0.00 55 1006.1
20260505220521 84 165 5.0 11.0 0.00 0.00 0.00 54 1006.1
20260505220019 84 170 4.0 11.0 0.00 0.00 0.00 53 1006.1
20260505215517 84 227 4.0 9.0 0.00 0.00 0.00 56 1006.3
20260505215016 84 216 4.0 8.0 0.00 0.00 0.00 54 1006.4
20260505214516 84 217 3.0 12.0 0.00 0.00 0.00 56 1006.4
20260505214257 84 187 3.0 12.0 0.00 0.00 0.00 55 1006.4
20260505213756 84 178 3.0 9.0 0.00 0.00 0.00 55 1006.3
20260505213009 84 171 3.0 9.0 0.00 0.00 0.00 55 1006.5
20260505212752 83 202 4.0 10.0 0.00 0.00 0.00 56 1006.7
20260505212008 83 188 5.0 10.0 0.00 0.00 0.00 56 1006.8
20260505211508 83 132 4.0 10.0 0.00 0.00 0.00 56 1006.8
20260505211008 83 157 4.0 10.0 0.00 0.00 0.00 56 1006.6
20260505210508 83 166 4.0 12.0 0.00 0.00 0.00 55 1006.9
20260505210009 83 183 4.0 12.0 0.00 0.00 0.00 56 1007.0
20260505205503 83 228 4.0 10.0 0.00 0.00 0.00 54 1007.1
20260505205003 84 158 4.0 10.0 0.00 0.00 0.00 55 1006.9
20260505204502 83 145 4.0 12.0 0.00 0.00 0.00 56 1007.0
20260505204001 83 153 5.0 12.0 0.00 0.00 0.00 55 1007.0
20260505203501 82 188 5.0 11.0 0.00 0.00 0.00 56 1007.2
20260505203003 82 191 5.0 14.0 0.00 0.00 0.00 56 1007.2
20260505202459 82 225 5.0 14.0 0.00 0.00 0.00 56 1007.3
20260505202000 82 210 4.0 11.0 0.00 0.00 0.00 57 1007.4
20260505201501 82 167 4.0 12.0 0.00 0.00 0.00 58 1007.5
20260505201001 82 166 4.0 12.0 0.00 0.00 0.00 57 1007.6
20260505200500 82 216 3.0 8.0 0.00 0.00 0.00 57 1007.7
20260505200001 81 175 3.0 8.0 0.00 0.00 0.00 58 1007.7
20260505195500 81 165 3.0 9.0 0.00 0.00 0.00 58 1008.0
20260505194955 81 175 3.0 9.0 0.00 0.00 0.00 58 1008.1
20260505194456 81 213 4.0 10.0 0.00 0.00 0.00 59 1008.1
20260505193956 80 195 4.0 10.0 0.00 0.00 0.00 59 1008.1
20260505193455 80 132 3.0 10.0 0.00 0.00 0.00 59 1008.2
20260505192955 80 153 3.0 10.0 0.00 0.00 0.00 59 1008.2
20260505192455 81 165 4.0 11.0 0.00 0.00 0.00 59 1008.2
20260505191958 80 182 4.0 11.0 0.00 0.00 0.00 59 1008.4
20260505191457 80 197 4.0 10.0 0.00 0.00 0.00 59 1008.2
20260505190957 80 165 4.0 10.0 0.00 0.00 0.00 60 1008.3
20260505190455 79 198 4.0 12.0 0.00 0.00 0.00 60 1008.4
20260505190237 79 169 4.0 12.0 0.00 0.00 0.00 61 1008.4
20260505185452 79 132 4.0 9.0 0.00 0.00 0.00 60 1008.4
20260505185232 79 160 4.0 9.0 0.00 0.00 0.00 61 1008.5
20260505184453 79 160 5.0 13.0 0.00 0.00 0.00 61 1008.6
20260505183951 79 215 5.0 13.0 0.00 0.00 0.00 61 1008.7
20260505183734 78 213 5.0 15.0 0.00 0.00 0.00 61 1008.8
20260505182952 78 250 3.0 15.0 0.00 0.00 0.00 61 1008.6
20260505182727 78 223 3.0 8.0 0.00 0.00 0.00 61 1008.8
20260505182229 78 174 4.0 11.0 0.00 0.00 0.00 61 1008.8
20260505181720 78 223 4.0 11.0 0.00 0.00 0.00 61 1008.9
20260505181450 78 223 4.0 11.0 0.00 0.00 0.00 61 1008.9
20260505180948 77 225 4.0 11.0 0.00 0.00 0.00 62 1008.9
20260505180728 77 154 3.0 11.0 0.00 0.00 0.00 62 1009.0
20260505175950 77 239 4.0 11.0 0.00 0.00 0.00 62 1009.1
20260505175445 77 221 4.0 12.0 0.00 0.00 0.00 62 1009.2
20260505174944 77 159 3.0 12.0 0.00 0.00 0.00 62 1009.1
20260505174724 77 215 4.0 12.0 0.00 0.00 0.00 62 1009.2
20260505173942 76 176 5.0 14.0 0.00 0.00 0.00 62 1009.3
20260505173443 76 235 5.0 14.0 0.00 0.00 0.00 62 1009.3
20260505172941 77 221 4.0 11.0 0.00 0.00 0.00 62 1009.3
20260505172725 77 215 4.0 10.0 0.00 0.00 0.00 63 1009.2
20260505171941 76 208 4.0 11.0 0.00 0.00 0.00 63 1009.2
20260505171443 76 186 4.0 11.0 0.00 0.00 0.00 63 1009.2
20260505170943 77 190 4.0 11.0 0.00 0.00 0.00 63 1009.3
20260505170438 76 238 4.0 11.0 0.00 0.00 0.00 64 1009.4
20260505165937 76 211 4.0 11.0 0.00 0.00 0.00 64 1009.4
20260505165437 75 215 4.0 10.0 0.00 0.00 0.00 64 1009.3
20260505165224 75 199 3.0 10.0 0.00 0.00 0.00 65 1009.3
20260505164438 75 125 3.0 11.0 0.00 0.00 0.00 65 1009.3
20260505163938 74 227 4.0 11.0 0.00 0.00 0.00 65 1009.2
20260505163438 74 217 3.0 8.0 0.00 0.00 0.00 66 1009.3
20260505163215 74 201 3.0 11.0 0.00 0.00 0.00 65 1009.2
20260505162435 74 222 3.0 11.0 0.00 0.00 0.00 65 1009.2
20260505161934 74 207 3.0 9.0 0.00 0.00 0.00 65 1009.3
20260505161433 74 246 3.0 9.0 0.00 0.00 0.00 66 1009.3
20260505160933 73 225 4.0 11.0 0.00 0.00 0.00 66 1009.3
20260505160434 73 227 5.0 12.0 0.00 0.00 0.00 66 1009.3
20260505152927 72 205 4.0 9.0 0.00 0.00 0.00 68 1009.5
20260505152428 72 235 4.0 8.0 0.00 0.00 0.00 68 1009.3
20260505151920 72 210 4.0 12.0 0.00 0.00 0.00 68 1009.2
20260505151419 72 168 4.0 12.0 0.00 0.00 0.00 69 1009.2
20260505150919 72 228 3.0 9.0 0.00 0.00 0.00 69 1009.1
20260505150453 72 223 3.0 12.0 0.00 0.00 0.00 69 1009.2
20260505150442 72 252 3.0 10.0 0.00 0.00 0.00 69 1009.2
20260505140411 71 173 3.0 8.0 0.00 0.00 0.00 70 1008.8
20260505124900 71 202 4.0 11.0 0.00 0.00 0.00 69 1008.2
20260505124354 71 218 4.0 15.0 0.00 0.00 0.00 69 1008.1
20260505123854 70 200 4.0 15.0 0.00 0.00 0.00 69 1008.0
20260505123354 70 218 4.0 14.0 0.00 0.00 0.00 69 1007.9
20260505122854 70 200 4.0 11.0 0.00 0.00 0.00 69 1007.9
20260505122355 70 194 4.0 14.0 0.00 0.00 0.00 69 1007.9
20260505121855 70 215 4.0 14.0 0.00 0.00 0.00 69 1007.6
20260505121348 70 157 3.0 10.0 0.00 0.00 0.00 69 1007.6
20260505120847 70 207 3.0 10.0 0.00 0.00 0.00 69 1007.5
20260505120347 70 190 4.0 10.0 0.00 0.00 0.00 69 1007.5
20260505115848 70 150 4.0 10.0 0.00 0.00 0.00 69 1007.5
20260505115626 70 163 4.0 13.0 0.00 0.00 0.00 69 1007.4
20260505114848 70 166 4.0 13.0 0.00 0.00 0.00 68 1007.4
20260505114624 70 218 4.0 12.0 0.00 0.00 0.00 68 1007.3
20260505113909 70 214 5.0 14.0 0.00 0.00 0.00 68 1007.4
20260505113900 70 196 4.0 14.0 0.00 0.00 0.00 68 1007.4
20260505112842 70 178 5.0 14.0 0.00 0.00 0.00 68 1007.2
20260505112341 70 195 4.0 14.0 0.00 0.00 0.00 68 1007.2
20260505111842 70 196 4.0 15.0 0.00 0.00 0.00 68 1007.3
20260505111338 70 198 4.0 15.0 0.00 0.00 0.00 68 1007.5
20260505110840 70 155 4.0 12.0 0.00 0.00 0.00 68 1007.5
20260505110339 70 212 4.0 12.0 0.00 0.00 0.00 68 1007.7
20260505102111 70 194 3.0 9.0 0.00 0.00 0.00 68 1007.9
20260505101335 70 188 3.0 9.0 0.00 0.00 0.00 68 1007.9
20260505101116 70 150 3.0 10.0 0.00 0.00 0.00 68 1007.9
20260505100330 70 215 3.0 10.0 0.00 0.00 0.00 68 1007.9
20260505095829 70 188 4.0 11.0 0.00 0.00 0.00 68 1007.7
20260505095329 70 165 4.0 11.0 0.00 0.00 0.00 68 1007.5
20260505094828 70 175 3.0 11.0 0.00 0.00 0.00 67 1007.6
20260505094328 70 155 4.0 11.0 0.00 0.00 0.00 68 1007.7
20260505093827 70 225 4.0 12.0 0.00 0.00 0.00 68 1007.9
20260505093604 70 175 3.0 12.0 0.00 0.00 0.00 67 1007.9
20260505092823 70 163 3.0 8.0 0.00 0.00 0.00 67 1007.7
20260505092324 70 215 4.0 10.0 0.00 0.00 0.00 67 1007.6
20260505091823 70 158 4.0 10.0 0.00 0.00 0.00 67 1008.0
20260505091324 70 195 3.0 10.0 0.00 0.00 0.00 68 1008.1
20260505090825 70 174 3.0 10.0 0.00 0.00 0.00 68 1008.0
20260505090323 70 225 3.0 9.0 0.00 0.00 0.00 68 1008.0
20260505090058 70 223 4.0 11.0 0.00 0.00 0.00 68 1008.0
20260505085319 70 202 4.0 11.0 0.00 0.00 0.00 68 1007.9
20260505084817 70 220 4.0 12.0 0.00 0.00 0.00 68 1008.1
20260505084317 70 227 4.0 12.0 0.00 0.00 0.00 68 1008.0
20260505083817 70 196 5.0 13.0 0.00 0.00 0.00 68 1007.9
20260505083318 70 239 4.0 13.0 0.00 0.00 0.00 68 1008.1
20260505082813 70 203 4.0 11.0 0.00 0.00 0.00 67 1008.3
20260505082313 70 171 4.0 10.0 0.00 0.00 0.00 67 1008.2
20260505082056 70 187 4.0 10.0 0.00 0.00 0.00 67 1008.2
20260505081308 70 213 4.0 11.0 0.00 0.00 0.00 67 1008.3
20260505080803 70 194 4.0 11.0 0.00 0.00 0.00 67 1008.5
20260505080304 70 167 4.0 11.0 0.00 0.00 0.00 67 1008.3
20260505075803 70 128 4.0 11.0 0.00 0.00 0.00 67 1008.4
20260505075304 70 169 4.0 12.0 0.00 0.00 0.00 67 1008.4
20260505074804 70 181 4.0 12.0 0.00 0.00 0.00 67 1008.6
20260505074305 70 167 4.0 12.0 0.00 0.00 0.00 67 1008.6
20260505073800 70 220 4.0 13.0 0.00 0.00 0.00 67 1008.7
20260505073300 70 181 4.0 13.0 0.00 0.00 0.00 67 1008.8
20260505072800 70 190 4.0 12.0 0.00 0.00 0.00 67 1008.9
20260505072258 70 160 5.0 12.0 0.00 0.00 0.00 67 1009.0
20260505072038 71 171 5.0 12.0 0.00 0.00 0.00 67 1009.0
20260505071300 70 180 4.0 11.0 0.00 0.00 0.00 67 1009.0
20260505070755 70 197 4.0 11.0 0.00 0.00 0.00 67 1009.1
20260505070257 71 200 4.0 11.0 0.00 0.00 0.00 67 1009.1
20260505065755 71 201 5.0 12.0 0.00 0.00 0.00 67 1009.3
20260505065255 71 166 5.0 12.0 0.00 0.00 0.00 67 1009.2
20260505064754 71 190 4.0 11.0 0.00 0.00 0.00 67 1009.4
20260505064256 71 182 5.0 12.0 0.00 0.00 0.00 67 1009.3
20260505063750 71 212 5.0 12.0 0.00 0.00 0.00 67 1009.5
20260505063251 71 160 4.0 12.0 0.00 0.00 0.00 67 1009.6
20260505063033 71 142 4.0 12.0 0.00 0.00 0.00 67 1009.7
20260505062250 71 161 4.0 12.0 0.00 0.00 0.00 67 1009.7
20260505061752 71 162 4.0 12.0 0.00 0.00 0.00 66 1009.7
20260505061535 71 174 4.0 12.0 0.00 0.00 0.00 66 1009.8
20260505061026 71 155 4.0 12.0 0.00 0.00 0.00 66 1009.7
20260505060248 71 193 4.0 10.0 0.00 0.00 0.00 66 1009.7
20260505055748 71 184 3.0 9.0 0.00 0.00 0.00 66 1009.7
20260505055247 70 163 3.0 9.0 0.00 0.00 0.00 66 1009.7
20260505054748 70 160 3.0 8.0 0.00 0.00 0.00 66 1009.7
20260505054247 71 151 3.0 11.0 0.00 0.00 0.00 66 1009.7
20260505053746 71 205 3.0 11.0 0.00 0.00 0.00 66 1009.7
20260505053247 71 149 4.0 11.0 0.00 0.00 0.00 66 1009.7
20260505052746 71 167 4.0 11.0 0.00 0.00 0.00 66 1009.8
20260505052248 70 169 3.0 13.0 0.00 0.00 0.00 66 1009.7
20260505052019 70 185 4.0 13.0 0.00 0.00 0.00 67 1009.6
20260505051240 70 0 3.0 10.0 0.00 0.00 0.00 66 1009.5
20260505050741 70 173 3.0 10.0 0.00 0.00 0.00 66 1009.6
20260505050240 70 0 3.0 9.0 0.00 0.00 0.00 66 1009.7
20260505041726 71 166 4.0 11.0 0.00 0.00 0.00 65 1009.5
20260505041226 71 156 4.0 11.0 0.00 0.00 0.00 64 1009.6
20260505041005 72 171 4.0 11.0 0.00 0.00 0.00 65 1009.6
20260505040227 72 150 4.0 11.0 0.00 0.00 0.00 64 1009.7
20260505035725 72 153 4.0 11.0 0.00 0.00 0.00 64 1009.6
20260505035226 72 158 4.0 10.0 0.00 0.00 0.00 64 1009.6
20260505034718 72 109 4.0 10.0 0.00 0.00 0.00 64 1009.5
20260505034219 72 163 4.0 9.0 0.00 0.00 0.00 63 1009.5
20260505033718 73 163 4.0 9.0 0.00 0.00 0.00 63 1009.5
20260505033219 73 173 4.0 9.0 0.00 0.00 0.00 63 1009.4
20260505032720 73 163 3.0 10.0 0.00 0.00 0.00 63 1009.4
20260505032218 73 212 3.0 10.0 0.00 0.00 0.00 62 1009.5
20260505031952 73 168 3.0 7.0 0.00 0.00 0.00 62 1009.5
20260505031213 73 168 4.0 9.0 0.00 0.00 0.00 62 1009.5
20260505030714 74 191 4.0 10.0 0.00 0.00 0.00 62 1009.5
20260505030453 74 149 4.0 10.0 0.00 0.00 0.00 61 1009.6
20260505025713 74 163 4.0 9.0 0.00 0.00 0.00 61 1009.6
20260505025213 74 152 4.0 9.0 0.00 0.00 0.00 61 1009.5
20260505024711 74 164 3.0 9.0 0.00 0.00 0.00 61 1009.6
20260505024451 74 152 3.0 9.0 0.00 0.00 0.00 60 1009.6
20260505023708 74 156 4.0 8.0 0.00 0.00 0.00 60 1009.5
20260505023209 74 171 3.0 7.0 0.00 0.00 0.00 60 1009.4
20260505022707 74 161 3.0 8.0 0.00 0.00 0.00 59 1009.4
20260505022208 75 162 3.0 8.0 0.00 0.00 0.00 59 1009.4
20260505021703 75 156 3.0 7.0 0.00 0.00 0.00 59 1009.3
20260505021203 75 172 3.0 8.0 0.00 0.00 0.00 58 1009.3
20260505020700 75 150 3.0 8.0 0.00 0.00 0.00 58 1009.4
20260505020201 75 186 3.0 8.0 0.00 0.00 0.00 57 1009.4
20260505015701 75 0 2.0 6.0 0.00 0.00 0.00 56 1009.6
20260505015201 76 0 3.0 5.0 0.00 0.00 0.00 56 1009.4
20260505014657 76 0 3.0 8.0 0.00 0.00 0.00 56 1009.4
20260505014156 76 0 3.0 9.0 0.00 0.00 0.00 55 1009.4
20260505013656 76 0 3.0 9.0 0.00 0.00 0.00 55 1009.3
20260505013158 76 0 3.0 9.0 0.00 0.00 0.00 54 1009.3
20260505012654 77 0 3.0 9.0 0.00 0.00 0.00 54 1009.2
20260505012153 77 0 3.0 9.0 0.00 0.00 0.00 53 1009.2
20260505011649 77 0 4.0 9.0 0.00 0.00 0.00 53 1009.2
20260505011148 77 0 3.0 8.0 0.00 0.00 0.00 53 1009.1
20260505010649 77 0 3.0 7.0 0.00 0.00 0.00 52 1009.0
20260505010431 78 0 3.0 8.0 0.00 0.00 0.00 52 1009.0
20260505005647 78 138 3.0 8.0 0.00 0.00 0.00 51 1009.0
20260505005148 78 153 3.0 7.0 0.00 0.00 0.00 50 1009.0
20260505004644 78 192 3.0 11.0 0.00 0.00 0.00 50 1009.1
20260505004420 79 173 4.0 11.0 0.00 0.00 0.00 49 1009.1
20260505003644 79 211 5.0 16.0 0.00 0.00 0.00 49 1009.0
20260505003145 79 179 5.0 16.0 0.00 0.00 0.00 49 1008.9
20260505002924 79 163 5.0 11.0 0.00 0.00 0.00 48 1009.0
20260505002145 79 178 5.0 16.0 0.00 0.00 0.00 48 1008.9
20260505001645 80 176 5.0 16.0 0.00 0.00 0.00 47 1008.7
20260505001139 80 148 4.0 10.0 0.00 0.00 0.00 47 1008.8
20260505000917 80 168 4.0 11.0 0.00 0.00 0.00 47 1009.0
20260505000139 80 217 5.0 13.0 0.00 0.00 0.00 47 1009.1
20260504235637 80 193 5.0 13.0 0.00 0.00 0.00 46 1009.1
20260504235138 80 188 4.0 13.0 0.00 0.00 0.00 46 1009.1
20260504234637 80 209 4.0 12.0 0.00 0.00 0.00 46 1009.4
20260504234417 80 198 4.0 15.0 0.00 0.00 0.00 45 1009.5
20260504233636 80 209 5.0 15.0 0.00 0.00 0.00 45 1009.3
20260504233136 80 194 5.0 13.0 0.00 0.00 0.00 46 1009.4
20260504232636 81 170 4.0 13.0 0.00 0.00 0.00 45 1009.5
20260504232421 81 191 4.0 10.0 0.00 0.00 0.00 47 1009.6
20260504231636 81 190 5.0 10.0 0.00 0.00 0.00 46 1009.5
20260504231137 82 168 5.0 16.0 0.00 0.00 0.00 45 1009.6
20260504230915 81 150 5.0 16.0 0.00 0.00 0.00 46 1009.5
20260504230133 81 146 4.0 14.0 0.00 0.00 0.00 45 1009.6